Time,TemperatureF,DewpointF,PressureIn,WindDirection,WindDirectionDegrees,WindSpeedMPH,WindSpeedGustMPH,Humidity,HourlyPrecipIn,Conditions,Clouds,dailyrainin,SoftwareType,DateUTC
2014-12-17 00:01:00,35.7,26.9,28.87,SSE,150,0.0,4.0,70,0.00,,---,0.00,VWS V14.01,2014-12-17 08:01:00,
2014-12-17 00:06:00,35.7,26.9,28.87,SSE,150,0.0,1.0,70,0.00,,---,0.00,VWS V14.01,2014-12-17 08:06:00,
2014-12-17 00:11:00,35.6,26.8,28.87,SSE,150,4.0,4.0,70,0.00,,---,0.00,VWS V14.01,2014-12-17 08:11:00,
2014-12-17 00:16:00,35.6,26.8,28.87,SSE,150,2.0,4.0,70,0.00,,---,0.00,VWS V14.01,2014-12-17 08:16:00,
2014-12-17 00:21:00,35.6,26.8,28.87,SSE,150,1.0,1.0,70,0.00,,---,0.00,VWS V14.01,2014-12-17 08:21:00,
2014-12-17 00:26:00,35.5,26.7,28.87,SSE,150,2.0,2.0,70,0.00,,---,0.00,VWS V14.01,2014-12-17 08:26:00,
2014-12-17 00:31:00,35.4,27.0,28.87,SSE,150,2.0,4.0,71,0.00,,---,0.00,VWS V14.01,2014-12-17 08:31:00,
2014-12-17 00:36:00,35.3,27.2,28.86,SSE,150,2.0,4.0,72,0.00,,---,0.00,VWS V14.01,2014-12-17 08:36:00,
2014-12-17 00:41:00,35.2,27.1,28.86,SSE,150,4.0,4.0,72,0.00,,---,0.00,VWS V14.01,2014-12-17 08:41:00,
2014-12-17 00:46:00,35.2,26.8,28.86,SSE,150,0.0,1.0,71,0.00,,---,0.00,VWS V14.01,2014-12-17 08:46:00,
2014-12-17 00:51:00,35.2,26.8,28.86,SSE,150,0.0,0.0,71,0.00,,---,0.00,VWS V14.01,2014-12-17 08:51:00,
2014-12-17 00:56:00,35.1,26.7,28.86,SSE,150,0.0,0.0,71,0.00,,---,0.00,VWS V14.01,2014-12-17 08:56:00,
2014-12-17 01:01:00,35.2,26.8,28.86,SSE,150,1.0,1.0,71,0.00,,---,0.00,VWS V14.01,2014-12-17 09:01:00,
2014-12-17 01:06:00,35.1,26.7,28.86,SSE,150,0.0,0.0,71,0.00,,---,0.00,VWS V14.01,2014-12-17 09:06:00,
2014-12-17 01:11:00,35.1,26.7,28.86,NE,52,1.0,3.0,71,0.00,,---,0.00,VWS V14.01,2014-12-17 09:11:00,
2014-12-17 01:16:00,35.1,27.0,28.86,NE,52,2.0,3.0,72,0.00,,---,0.00,VWS V14.01,2014-12-17 09:16:00,
2014-12-17 01:21:00,35.1,26.7,28.86,NE,53,2.0,2.0,71,0.00,,---,0.00,VWS V14.01,2014-12-17 09:21:00,
2014-12-17 01:26:00,35.1,26.7,28.87,NE,53,0.0,4.0,71,0.00,,---,0.00,VWS V14.01,2014-12-17 09:26:00,
2014-12-17 01:31:00,35.0,26.6,28.86,NE,53,3.0,3.0,71,0.00,,---,0.00,VWS V14.01,2014-12-17 09:31:00,
2014-12-17 01:36:00,35.0,26.6,28.86,NE,53,0.0,2.0,71,0.00,,---,0.00,VWS V14.01,2014-12-17 09:36:00,
2014-12-17 01:41:00,35.0,26.6,28.86,NE,53,0.0,3.0,71,0.00,,---,0.00,VWS V14.01,2014-12-17 09:41:00,
2014-12-17 01:46:00,35.0,26.6,28.86,NE,53,0.0,2.0,71,0.00,,---,0.00,VWS V14.01,2014-12-17 09:46:00,
2014-12-17 01:51:00,35.1,26.3,28.86,NE,53,3.0,4.0,70,0.00,,---,0.00,VWS V14.01,2014-12-17 09:51:00,
2014-12-17 01:56:00,35.1,26.3,28.86,NE,53,0.0,1.0,70,0.00,,---,0.00,VWS V14.01,2014-12-17 09:56:00,
2014-12-17 02:01:00,35.1,26.3,28.87,NE,53,1.0,2.0,70,0.00,,---,0.00,VWS V14.01,2014-12-17 10:01:00,
2014-12-17 02:06:00,35.0,26.2,28.87,NE,53,1.0,3.0,70,0.00,,---,0.00,VWS V14.01,2014-12-17 10:06:00,
2014-12-17 02:11:00,34.9,26.1,28.87,NE,53,0.0,3.0,70,0.00,,---,0.00,VWS V14.01,2014-12-17 10:11:00,
2014-12-17 02:16:00,34.9,26.1,28.87,NE,53,1.0,3.0,70,0.00,,---,0.00,VWS V14.01,2014-12-17 10:16:00,
2014-12-17 02:21:00,34.8,26.0,28.87,NE,53,2.0,2.0,70,0.00,,---,0.00,VWS V14.01,2014-12-17 10:21:00,
2014-12-17 02:26:00,34.7,26.3,28.87,NE,53,2.0,3.0,71,0.00,,---,0.00,VWS V14.01,2014-12-17 10:26:00,
2014-12-17 02:31:00,34.6,26.2,28.87,NE,53,0.0,3.0,71,0.00,,---,0.00,VWS V14.01,2014-12-17 10:31:00,
2014-12-17 02:36:00,34.5,26.1,28.87,NE,53,0.0,2.0,71,0.00,,---,0.00,VWS V14.01,2014-12-17 10:36:00,
2014-12-17 02:41:00,34.4,26.0,28.87,NE,53,1.0,2.0,71,0.00,,---,0.00,VWS V14.01,2014-12-17 10:41:00,
2014-12-17 02:46:00,34.4,26.3,28.87,NE,53,0.0,1.0,72,0.00,,---,0.00,VWS V14.01,2014-12-17 10:46:00,
2014-12-17 02:50:00,34.3,26.2,28.87,NE,53,0.0,3.0,72,0.00,,---,0.00,VWS V14.01,2014-12-17 10:50:00,
2014-12-17 02:55:00,34.3,26.2,28.87,NE,53,0.0,2.0,72,0.00,,---,0.00,VWS V14.01,2014-12-17 10:55:00,
2014-12-17 03:00:00,34.3,26.2,28.87,NE,53,0.0,4.0,72,0.00,,---,0.00,VWS V14.01,2014-12-17 11:00:00,
2014-12-17 03:05:00,34.3,26.2,28.87,NE,53,0.0,0.0,72,0.00,,---,0.00,VWS V14.01,2014-12-17 11:05:00,
2014-12-17 03:10:00,34.3,26.2,28.87,NE,53,0.0,0.0,72,0.00,,---,0.00,VWS V14.01,2014-12-17 11:10:00,
2014-12-17 03:15:00,34.3,26.2,28.87,NE,53,0.0,0.0,72,0.00,,---,0.00,VWS V14.01,2014-12-17 11:15:00,
2014-12-17 03:20:00,34.4,26.3,28.87,NE,53,0.0,0.0,72,0.00,,---,0.00,VWS V14.01,2014-12-17 11:20:00,
2014-12-17 03:25:00,34.4,26.3,28.87,NE,53,0.0,0.0,72,0.00,,---,0.00,VWS V14.01,2014-12-17 11:25:00,
2014-12-17 03:30:00,34.4,26.3,28.88,NE,53,0.0,2.0,72,0.00,,---,0.00,VWS V14.01,2014-12-17 11:30:00,
2014-12-17 03:35:00,34.4,26.3,28.88,NE,53,0.0,1.0,72,0.00,,---,0.00,VWS V14.01,2014-12-17 11:35:00,
2014-12-17 03:40:00,34.4,26.3,28.88,NE,53,0.0,2.0,72,0.00,,---,0.00,VWS V14.01,2014-12-17 11:40:00,
2014-12-17 03:45:00,34.5,26.4,28.88,NE,53,0.0,0.0,72,0.00,,---,0.00,VWS V14.01,2014-12-17 11:45:00,
2014-12-17 03:50:00,34.5,26.4,28.88,NE,53,0.0,2.0,72,0.00,,---,0.00,VWS V14.01,2014-12-17 11:50:00,
2014-12-17 03:55:00,34.6,26.5,28.88,NE,53,2.0,2.0,72,0.00,,---,0.00,VWS V14.01,2014-12-17 11:55:00,
2014-12-17 04:00:00,34.7,26.6,28.89,NE,53,0.0,0.0,72,0.00,,---,0.00,VWS V14.01,2014-12-17 12:00:00,
2014-12-17 04:05:00,34.8,26.4,28.89,NE,53,0.0,0.0,71,0.00,,---,0.00,VWS V14.01,2014-12-17 12:05:00,
2014-12-17 04:10:00,34.8,26.7,28.89,NE,53,0.0,3.0,72,0.00,,---,0.00,VWS V14.01,2014-12-17 12:10:00,
2014-12-17 04:15:00,34.8,27.0,28.89,NE,53,0.0,4.0,73,0.00,,---,0.00,VWS V14.01,2014-12-17 12:15:00,
2014-12-17 04:21:00,34.7,27.0,28.89,NE,53,0.0,3.0,73,0.00,,---,0.00,VWS V14.01,2014-12-17 12:21:00,
2014-12-17 04:25:00,34.6,27.2,28.89,NE,50,3.0,4.0,74,0.00,,---,0.00,VWS V14.01,2014-12-17 12:25:00,
2014-12-17 04:30:00,34.5,27.1,28.89,NE,50,3.0,4.0,74,0.00,,---,0.00,VWS V14.01,2014-12-17 12:30:00,
2014-12-17 04:36:00,34.3,26.9,28.89,NE,50,3.0,4.0,74,0.00,,---,0.00,VWS V14.01,2014-12-17 12:36:00,
2014-12-17 04:40:00,34.2,27.1,28.89,NE,50,2.0,3.0,75,0.00,,---,0.00,VWS V14.01,2014-12-17 12:40:00,
2014-12-17 04:45:00,34.1,27.0,28.88,NE,50,1.0,3.0,75,0.00,,---,0.00,VWS V14.01,2014-12-17 12:45:00,
2014-12-17 04:50:00,33.9,26.8,28.88,NE,50,2.0,4.0,75,0.00,,---,0.00,VWS V14.01,2014-12-17 12:50:00,
2014-12-17 04:55:00,33.9,26.8,28.89,NE,50,0.0,1.0,75,0.00,,---,0.00,VWS V14.01,2014-12-17 12:55:00,
2014-12-17 05:00:00,33.7,26.6,28.89,NE,51,0.0,2.0,75,0.00,,---,0.00,VWS V14.01,2014-12-17 13:00:00,
2014-12-17 05:05:00,33.6,26.5,28.89,NE,51,2.0,2.0,75,0.00,,---,0.00,VWS V14.01,2014-12-17 13:05:00,
2014-12-17 05:10:00,33.5,26.4,28.89,ESE,109,2.0,7.0,75,0.00,,---,0.00,VWS V14.01,2014-12-17 13:10:00,
2014-12-17 05:15:00,33.5,26.4,28.89,ESE,109,0.0,4.0,75,0.00,,---,0.00,VWS V14.01,2014-12-17 13:15:00,
2014-12-17 05:20:00,33.5,26.1,28.90,ESE,109,0.0,2.0,74,0.00,,---,0.00,VWS V14.01,2014-12-17 13:20:00,
2014-12-17 05:25:00,33.6,26.2,28.90,ESE,109,2.0,2.0,74,0.00,,---,0.00,VWS V14.01,2014-12-17 13:25:00,
2014-12-17 05:30:00,33.6,26.2,28.89,ESE,118,4.0,4.0,74,0.00,,---,0.00,VWS V14.01,2014-12-17 13:30:00,
2014-12-17 05:35:00,33.6,26.2,28.89,ESE,118,2.0,5.0,74,0.00,,---,0.00,VWS V14.01,2014-12-17 13:35:00,
2014-12-17 05:40:00,33.5,26.1,28.90,SE,138,0.0,1.0,74,0.00,,---,0.00,VWS V14.01,2014-12-17 13:40:00,
2014-12-17 05:45:00,33.5,26.4,28.90,South,173,2.0,7.0,75,0.00,,---,0.00,VWS V14.01,2014-12-17 13:45:00,
2014-12-17 05:50:00,33.8,27.0,28.90,SW,226,2.0,4.0,76,0.00,,---,0.00,VWS V14.01,2014-12-17 13:50:00,
2014-12-17 05:55:00,33.8,27.0,28.90,NE,34,3.0,4.0,76,0.00,,---,0.00,VWS V14.01,2014-12-17 13:55:00,
2014-12-17 06:00:00,33.6,26.5,28.90,NNE,32,3.0,5.0,75,0.00,,---,0.00,VWS V14.01,2014-12-17 14:00:00,
2014-12-17 06:05:00,33.4,26.3,28.90,NNE,32,0.0,1.0,75,0.00,,---,0.00,VWS V14.01,2014-12-17 14:05:00,
2014-12-17 06:10:00,33.4,26.7,28.90,NE,47,0.0,2.0,76,0.00,,---,0.00,VWS V14.01,2014-12-17 14:10:00,
2014-12-17 06:15:00,33.4,26.7,28.90,ENE,66,1.0,1.0,76,0.00,,---,0.00,VWS V14.01,2014-12-17 14:15:00,
2014-12-17 06:20:00,33.3,26.6,28.91,ENE,66,0.0,0.0,76,0.00,,---,0.00,VWS V14.01,2014-12-17 14:20:00,
2014-12-17 06:25:00,33.3,26.9,28.91,ENE,66,0.0,0.0,77,0.00,,---,0.00,VWS V14.01,2014-12-17 14:25:00,
2014-12-17 06:30:00,33.1,26.7,28.91,ENE,66,0.0,0.0,77,0.00,,---,0.00,VWS V14.01,2014-12-17 14:30:00,
2014-12-17 06:35:00,33.0,26.6,28.91,ENE,66,0.0,0.0,77,0.00,,---,0.00,VWS V14.01,2014-12-17 14:35:00,
2014-12-17 06:40:00,32.8,26.4,28.92,ENE,66,1.0,1.0,77,0.00,,---,0.00,VWS V14.01,2014-12-17 14:40:00,
2014-12-17 06:45:00,32.8,26.7,28.91,ENE,66,1.0,2.0,78,0.00,,---,0.00,VWS V14.01,2014-12-17 14:45:00,
2014-12-17 06:50:00,32.7,26.6,28.91,West,270,0.0,7.0,78,0.00,,---,0.00,VWS V14.01,2014-12-17 14:50:00,
2014-12-17 06:55:00,32.6,26.8,28.92,West,270,2.0,5.0,79,0.00,,---,0.00,VWS V14.01,2014-12-17 14:55:00,
2014-12-17 07:00:00,32.6,26.5,28.92,West,270,0.0,0.0,78,0.00,,---,0.00,VWS V14.01,2014-12-17 15:00:00,
2014-12-17 07:01:00,32.6,26.5,28.92,West,270,0.0,0.0,78,0.00,,---,0.00,VWS V14.01,2014-12-17 15:01:00,
2014-12-17 07:06:00,32.5,26.4,28.92,West,270,0.0,0.0,78,0.00,,---,0.00,VWS V14.01,2014-12-17 15:06:00,
2014-12-17 07:11:00,32.4,26.3,28.92,West,270,0.0,0.0,78,0.00,,---,0.00,VWS V14.01,2014-12-17 15:11:00,
2014-12-17 07:16:00,32.3,26.5,28.92,West,271,0.0,3.0,79,0.00,,---,0.00,VWS V14.01,2014-12-17 15:16:00,
2014-12-17 07:21:00,32.3,26.5,28.92,NE,49,4.0,5.0,79,0.00,,---,0.00,VWS V14.01,2014-12-17 15:21:00,
2014-12-17 07:26:00,32.3,26.5,28.92,NE,49,1.0,2.0,79,0.00,,---,0.00,VWS V14.01,2014-12-17 15:26:00,
2014-12-17 07:31:00,32.3,26.5,28.92,NE,49,0.0,0.0,79,0.00,,---,0.00,VWS V14.01,2014-12-17 15:31:00,
2014-12-17 07:36:00,32.2,26.4,28.92,NE,49,0.0,0.0,79,0.00,,---,0.00,VWS V14.01,2014-12-17 15:36:00,
2014-12-17 07:41:00,32.1,26.3,28.93,NE,49,0.0,2.0,79,0.00,,---,0.00,VWS V14.01,2014-12-17 15:41:00,
2014-12-17 07:46:00,32.1,26.3,28.93,East,94,0.0,4.0,79,0.00,,---,0.00,VWS V14.01,2014-12-17 15:46:00,
2014-12-17 07:51:00,32.0,26.2,28.93,East,94,1.0,2.0,79,0.00,,---,0.00,VWS V14.01,2014-12-17 15:51:00,
2014-12-17 07:56:00,32.0,26.5,28.93,East,94,0.0,0.0,80,0.00,,---,0.00,VWS V14.01,2014-12-17 15:56:00,
2014-12-17 08:01:00,32.2,26.7,28.93,East,94,0.0,0.0,80,0.00,,---,0.00,VWS V14.01,2014-12-17 16:01:00,
2014-12-17 08:06:00,32.6,27.1,28.94,East,94,0.0,1.0,80,0.00,,---,0.00,VWS V14.01,2014-12-17 16:06:00,
2014-12-17 08:11:00,33.1,27.6,28.94,East,94,0.0,0.0,80,0.00,,---,0.00,VWS V14.01,2014-12-17 16:11:00,
2014-12-17 08:16:00,33.9,28.1,28.94,East,94,0.0,2.0,79,0.00,,---,0.00,VWS V14.01,2014-12-17 16:16:00,
2014-12-17 08:21:00,34.7,28.5,28.94,East,94,0.0,0.0,78,0.00,,---,0.00,VWS V14.01,2014-12-17 16:21:00,
2014-12-17 08:26:00,35.6,29.1,28.94,East,94,0.0,1.0,77,0.00,,---,0.00,VWS V14.01,2014-12-17 16:26:00,
2014-12-17 08:31:00,36.5,29.0,28.94,East,94,0.0,0.0,74,0.00,,---,0.00,VWS V14.01,2014-12-17 16:31:00,
2014-12-17 08:36:00,37.6,29.4,28.94,East,94,1.0,1.0,72,0.00,,---,0.00,VWS V14.01,2014-12-17 16:36:00,
2014-12-17 08:41:00,38.5,29.6,28.94,East,94,0.0,2.0,70,0.00,,---,0.00,VWS V14.01,2014-12-17 16:41:00,
2014-12-17 08:46:00,39.3,29.6,28.94,East,94,0.0,0.0,68,0.00,,---,0.00,VWS V14.01,2014-12-17 16:46:00,
2014-12-17 08:51:00,39.7,29.7,28.94,East,94,0.0,2.0,67,0.00,,---,0.00,VWS V14.01,2014-12-17 16:51:00,
2014-12-17 08:56:00,39.8,29.4,28.94,East,98,1.0,2.0,66,0.00,,---,0.00,VWS V14.01,2014-12-17 16:56:00,
2014-12-17 09:01:00,39.8,29.0,28.95,East,98,0.0,0.0,65,0.00,,---,0.00,VWS V14.01,2014-12-17 17:01:00,
2014-12-17 09:06:00,39.5,29.1,28.94,East,98,1.0,2.0,66,0.00,,---,0.00,VWS V14.01,2014-12-17 17:06:00,
2014-12-17 09:11:00,39.2,29.2,28.95,SSW,205,3.0,5.0,67,0.00,,---,0.00,VWS V14.01,2014-12-17 17:11:00,
2014-12-17 09:16:00,39.2,29.2,28.95,SSW,201,4.0,4.0,67,0.00,,---,0.00,VWS V14.01,2014-12-17 17:16:00,
2014-12-17 09:21:00,39.7,30.0,28.95,SSW,200,0.0,4.0,68,0.00,,---,0.00,VWS V14.01,2014-12-17 17:21:00,
2014-12-17 09:26:00,40.6,30.5,28.95,SSW,196,0.0,3.0,67,0.00,,---,0.00,VWS V14.01,2014-12-17 17:26:00,
2014-12-17 09:31:00,41.5,30.2,28.95,South,184,0.0,6.0,64,0.00,,---,0.00,VWS V14.01,2014-12-17 17:31:00,
2014-12-17 09:36:00,42.3,30.6,28.95,SSW,196,1.0,5.0,63,0.00,,---,0.00,VWS V14.01,2014-12-17 17:36:00,
2014-12-17 09:41:00,42.7,30.2,28.95,SSE,162,0.0,5.0,61,0.00,,---,0.00,VWS V14.01,2014-12-17 17:41:00,
2014-12-17 09:46:00,43.1,31.0,28.95,SSE,162,2.0,4.0,62,0.00,,---,0.00,VWS V14.01,2014-12-17 17:46:00,
2014-12-17 09:51:00,43.7,31.1,28.95,SW,225,0.0,3.0,61,0.00,,---,0.00,VWS V14.01,2014-12-17 17:51:00,
2014-12-17 09:56:00,44.5,30.2,28.95,SSW,197,4.0,5.0,57,0.00,,---,0.00,VWS V14.01,2014-12-17 17:56:00,
2014-12-17 10:01:00,45.5,29.4,28.95,SSW,198,5.0,10.0,53,0.00,,---,0.00,VWS V14.01,2014-12-17 18:01:00,
2014-12-17 10:06:00,46.0,28.4,28.96,SSW,210,6.0,8.0,50,0.00,,---,0.00,VWS V14.01,2014-12-17 18:06:00,
2014-12-17 10:11:00,46.4,28.3,28.96,SW,228,3.0,7.0,49,0.00,,---,0.00,VWS V14.01,2014-12-17 18:11:00,
2014-12-17 10:16:00,47.2,30.5,28.96,SE,142,5.0,7.0,52,0.00,,---,0.00,VWS V14.01,2014-12-17 18:16:00,
2014-12-17 10:21:00,46.8,30.6,28.96,SE,140,6.0,6.0,53,0.00,,---,0.00,VWS V14.01,2014-12-17 18:21:00,
2014-12-17 10:26:00,46.7,31.0,28.96,SE,127,5.0,5.0,54,0.00,,---,0.00,VWS V14.01,2014-12-17 18:26:00,
2014-12-17 10:31:00,46.7,30.5,28.96,SE,135,0.0,5.0,53,0.00,,---,0.00,VWS V14.01,2014-12-17 18:31:00,
2014-12-17 10:36:00,46.9,29.7,28.96,SSE,153,0.0,2.0,51,0.00,,---,0.00,VWS V14.01,2014-12-17 18:36:00,
2014-12-17 10:41:00,47.7,30.5,28.95,SSE,152,1.0,1.0,51,0.00,,---,0.00,VWS V14.01,2014-12-17 18:41:00,
2014-12-17 10:46:00,47.1,29.4,28.96,SE,144,4.0,6.0,50,0.00,,---,0.00,VWS V14.01,2014-12-17 18:46:00,
2014-12-17 10:51:00,47.4,28.7,28.96,SSW,208,0.0,6.0,48,0.00,,---,0.00,VWS V14.01,2014-12-17 18:51:00,
2014-12-17 10:56:00,47.9,29.7,28.95,South,190,5.0,5.0,49,0.00,,---,0.00,VWS V14.01,2014-12-17 18:56:00,
2014-12-17 11:01:00,47.9,29.7,28.95,SSW,199,0.0,2.0,49,0.00,,---,0.00,VWS V14.01,2014-12-17 19:01:00,
2014-12-17 11:06:00,47.7,29.5,28.95,SSW,198,0.0,2.0,49,0.00,,---,0.00,VWS V14.01,2014-12-17 19:06:00,
2014-12-17 11:11:00,46.9,28.2,28.95,NNE,22,1.0,7.0,48,0.00,,---,0.00,VWS V14.01,2014-12-17 19:11:00,
2014-12-17 11:16:00,45.9,26.8,28.95,SW,216,5.0,10.0,47,0.00,,---,0.00,VWS V14.01,2014-12-17 19:16:00,
2014-12-17 11:21:00,45.1,27.1,28.95,WSW,250,7.0,9.0,49,0.00,,---,0.00,VWS V14.01,2014-12-17 19:21:00,
2014-12-17 11:26:00,44.1,28.1,28.94,WSW,248,6.0,9.0,53,0.00,,---,0.00,VWS V14.01,2014-12-17 19:26:00,
2014-12-17 11:31:00,44.5,28.0,28.94,West,259,8.0,11.0,52,0.00,,---,0.00,VWS V14.01,2014-12-17 19:31:00,
2014-12-17 11:36:00,45.3,28.2,28.94,SSW,212,4.0,9.0,51,0.00,,---,0.00,VWS V14.01,2014-12-17 19:36:00,
2014-12-17 11:41:00,46.5,28.4,28.94,West,271,6.0,10.0,49,0.00,,---,0.00,VWS V14.01,2014-12-17 19:41:00,
2014-12-17 11:46:00,47.5,28.8,28.94,SSW,194,6.0,9.0,48,0.00,,---,0.00,VWS V14.01,2014-12-17 19:46:00,
2014-12-17 11:51:00,47.7,28.5,28.94,WSW,244,4.0,8.0,47,0.00,,---,0.00,VWS V14.01,2014-12-17 19:51:00,
2014-12-17 11:56:00,48.0,28.8,28.93,WSW,258,8.0,11.0,47,0.00,,---,0.00,VWS V14.01,2014-12-17 19:56:00,
2014-12-17 12:01:00,47.8,28.6,28.93,SSW,199,4.0,10.0,47,0.00,,---,0.00,VWS V14.01,2014-12-17 20:01:00,
2014-12-17 12:06:00,48.1,28.3,28.93,West,280,2.0,13.0,46,0.00,,---,0.00,VWS V14.01,2014-12-17 20:06:00,
2014-12-17 12:11:00,49.5,29.1,28.92,West,278,11.0,12.0,45,0.00,,---,0.00,VWS V14.01,2014-12-17 20:11:00,
2014-12-17 12:16:00,49.2,28.2,28.92,West,269,10.0,16.0,44,0.00,,---,0.00,VWS V14.01,2014-12-17 20:16:00,
2014-12-17 12:21:00,48.0,27.7,28.92,WSW,240,7.0,16.0,45,0.00,,---,0.00,VWS V14.01,2014-12-17 20:21:00,
2014-12-17 12:26:00,48.3,29.0,28.92,WSW,252,3.0,8.0,47,0.00,,---,0.00,VWS V14.01,2014-12-17 20:26:00,
2014-12-17 12:31:00,49.0,29.1,28.92,SSW,200,3.0,8.0,46,0.00,,---,0.00,VWS V14.01,2014-12-17 20:31:00,
2014-12-17 12:35:00,49.2,28.2,28.92,WSW,252,3.0,6.0,44,0.00,,---,0.00,VWS V14.01,2014-12-17 20:35:00,
2014-12-17 12:41:00,49.2,28.2,28.91,South,191,10.0,10.0,44,0.00,,---,0.00,VWS V14.01,2014-12-17 20:41:00,
2014-12-17 12:46:00,48.5,28.7,28.91,WSW,244,8.0,8.0,46,0.00,,---,0.00,VWS V14.01,2014-12-17 20:46:00,
2014-12-17 12:50:00,48.3,28.0,28.91,SSW,196,6.0,9.0,45,0.00,,---,0.00,VWS V14.01,2014-12-17 20:50:00,
2014-12-17 12:55:00,47.9,27.6,28.91,SW,217,3.0,8.0,45,0.00,,---,0.00,VWS V14.01,2014-12-17 20:55:00,
2014-12-17 13:00:00,47.9,28.1,28.91,South,188,6.0,10.0,46,0.00,,---,0.00,VWS V14.01,2014-12-17 21:00:00,
2014-12-17 13:05:00,47.8,28.0,28.91,SW,232,5.0,7.0,46,0.00,,---,0.00,VWS V14.01,2014-12-17 21:05:00,
2014-12-17 13:10:00,47.8,28.0,28.91,SSW,206,6.0,6.0,46,0.00,,---,0.00,VWS V14.01,2014-12-17 21:10:00,
2014-12-17 13:15:00,47.9,28.1,28.91,SSW,204,5.0,7.0,46,0.00,,---,0.00,VWS V14.01,2014-12-17 21:15:00,
2014-12-17 13:20:00,47.7,28.0,28.91,South,182,3.0,9.0,46,0.00,,---,0.00,VWS V14.01,2014-12-17 21:20:00,
2014-12-17 13:25:00,47.3,27.6,28.91,South,173,7.0,10.0,46,0.00,,---,0.00,VWS V14.01,2014-12-17 21:25:00,
2014-12-17 13:30:00,47.0,27.8,28.91,SSW,213,6.0,6.0,47,0.00,,---,0.00,VWS V14.01,2014-12-17 21:30:00,
2014-12-17 13:35:00,46.8,27.6,28.91,SSW,205,4.0,8.0,47,0.00,,---,0.00,VWS V14.01,2014-12-17 21:35:00,
2014-12-17 13:40:00,46.6,28.0,28.92,SW,229,8.0,8.0,48,0.00,,---,0.00,VWS V14.01,2014-12-17 21:40:00,
2014-12-17 13:45:00,45.9,27.3,28.92,West,263,11.0,14.0,48,0.00,,---,0.00,VWS V14.01,2014-12-17 21:45:00,
2014-12-17 13:50:00,45.7,27.6,28.92,West,263,8.0,12.0,49,0.00,,---,0.00,VWS V14.01,2014-12-17 21:50:00,
2014-12-17 13:55:00,45.8,27.2,28.92,West,265,6.0,13.0,48,0.00,,---,0.00,VWS V14.01,2014-12-17 21:55:00,
2014-12-17 14:00:00,45.8,27.7,28.92,West,269,8.0,9.0,49,0.00,,---,0.00,VWS V14.01,2014-12-17 22:00:00,
2014-12-17 14:05:00,45.3,27.3,28.92,West,273,5.0,8.0,49,0.00,,---,0.00,VWS V14.01,2014-12-17 22:05:00,
2014-12-17 14:10:00,44.9,27.4,28.92,SW,224,5.0,15.0,50,0.00,,---,0.00,VWS V14.01,2014-12-17 22:10:00,
2014-12-17 14:15:00,44.8,27.3,28.92,South,182,9.0,14.0,50,0.00,,---,0.00,VWS V14.01,2014-12-17 22:15:00,
2014-12-17 14:20:00,44.3,27.3,28.92,WSW,241,7.0,13.0,51,0.00,,---,0.00,VWS V14.01,2014-12-17 22:20:00,
2014-12-17 14:25:00,44.0,27.5,28.93,SSW,192,7.0,10.0,52,0.00,,---,0.00,VWS V14.01,2014-12-17 22:25:00,
2014-12-17 14:30:00,43.7,26.8,28.92,WSW,250,5.0,10.0,51,0.00,,---,0.00,VWS V14.01,2014-12-17 22:30:00,
2014-12-17 14:35:00,43.5,27.5,28.93,West,274,5.0,9.0,53,0.00,,---,0.00,VWS V14.01,2014-12-17 22:35:00,
2014-12-17 14:40:00,43.3,27.3,28.92,West,278,10.0,11.0,53,0.00,,---,0.00,VWS V14.01,2014-12-17 22:40:00,
2014-12-17 14:45:00,43.4,27.9,28.92,West,278,6.0,13.0,54,0.00,,---,0.00,VWS V14.01,2014-12-17 22:45:00,
2014-12-17 14:50:00,43.4,28.3,28.92,West,266,9.0,17.0,55,0.00,,---,0.00,VWS V14.01,2014-12-17 22:50:00,
2014-12-17 14:55:00,43.3,28.7,28.92,SSW,193,7.0,10.0,56,0.00,,---,0.00,VWS V14.01,2014-12-17 22:55:00,
2014-12-17 15:00:00,42.8,28.2,28.92,West,262,8.0,13.0,56,0.00,,---,0.00,VWS V14.01,2014-12-17 23:00:00,
2014-12-17 15:05:00,42.4,28.3,28.93,WNW,289,10.0,13.0,57,0.00,,---,0.00,VWS V14.01,2014-12-17 23:05:00,
2014-12-17 15:10:00,42.3,28.2,28.93,West,260,14.0,14.0,57,0.00,,---,0.00,VWS V14.01,2014-12-17 23:10:00,
2014-12-17 15:15:00,42.2,28.9,28.93,West,261,11.0,16.0,59,0.00,,---,0.00,VWS V14.01,2014-12-17 23:15:00,
2014-12-17 15:20:00,42.0,28.7,28.93,WSW,249,8.0,16.0,59,0.00,,---,0.00,VWS V14.01,2014-12-17 23:20:00,
2014-12-17 15:25:00,42.0,28.7,28.93,West,277,7.0,14.0,59,0.00,,---,0.00,VWS V14.01,2014-12-17 23:25:00,
2014-12-17 15:30:00,42.1,28.4,28.94,West,271,11.0,13.0,58,0.00,,---,0.00,VWS V14.01,2014-12-17 23:30:00,
2014-12-17 15:35:00,42.1,28.4,28.94,West,268,7.0,11.0,58,0.00,,---,0.00,VWS V14.01,2014-12-17 23:35:00,
2014-12-17 15:40:00,41.9,28.2,28.94,WNW,302,12.0,13.0,58,0.00,,---,0.00,VWS V14.01,2014-12-17 23:40:00,
2014-12-17 15:45:00,41.8,28.1,28.93,West,259,10.0,14.0,58,0.00,,---,0.00,VWS V14.01,2014-12-17 23:45:00,
2014-12-17 15:50:00,41.6,27.9,28.94,WSW,247,11.0,18.0,58,0.00,,---,0.00,VWS V14.01,2014-12-17 23:50:00,